Location: Dittelspoint
(48.7198°N, 10.7214°E)
Time: 06:52:22
(UTC+00:00)

ATLAS CENTAUR R/B - Pass Details

Date: 09 April 2020
Orbit: 471 x 675 km, 64.7° (Epoch: 01 June)

Event Time Altitude Azimuth Distance (km) Brightness Sun altitude
Rises 18:37:10 0° 324° (NW) 2,739 5.9 -6.6°
Reaches altitude 10° 18:40:49 10° 357° (N) 1,787 4.3 -7.2°
Maximum altitude 18:42:20 12° 19° (NNE) 1,652 3.8 -7.4°
Drops below altitude 10° 18:43:49 10° 42° (NE) 1,744 3.7 -7.7°
Enters shadow 18:46:16 - 69° (ENE) 2,282 4.0 -8.0°
